weather.gov     
National Weather Service

Regional Weather Roundup
NWS Homepage
This page is being discontinued on March 12, 2014.
The same data is available at this site. Please update your bookmarks.
Thank you, and we apologize for the inconvenience.
Please send an email to SR-SRH.Webmaster@noaa.gov with any concerns.


Current Version
Previous Version:    01  02  03  04  05  06  07  08  09  10  11  12  13  14  15  16  17  18  19  20  21  22  23  24  25  26  27  28  29  30  
   31  32  33  34  35  36  37  38  39  40  41  42  43  44  45  46  47  48  49  50  51  52  53  
[Printable]
606
ASUS43 KGLD 281208
RWRGLD

GOODLAND FORECAST AREA HOURLY WEATHER ROUNDUP
NATIONAL WEATHER SERVICE GOODLAND KS
500 AM MST FRI NOV 28 2014

...OFFICIAL OBSERVATIONS...

CITY           SKY/WX    TMP DP  RH WIND       PRES   REMARKS
GOODLAND KS    PTCLDY    41  21  44 SW10      29.94F
HILL CITY KS   PTCLDY    37  25  61 W6        29.93F
IMPERIAL NEB   PTCLDY    33  23  66 W5        29.90F
MCCOOK NEB     PTCLDY    31  24  75 W6        29.90F
AKRON CO       MOCLDY    46  21  37 SW16      29.94F
BURLINGTON CO  PTCLDY    40  19  43 W12       29.95F
LIMON CO       PTCLDY    33  17  51 N6        30.01F
$$

...UNOFFICIAL OBSERVATIONS...

CITY           SKY/WX    TMP DP  RH WIND       PRES   REMARKS
COLBY KS       CLEAR     36  27  69 SW7       29.93F
GOVE KS          N/A     29  32 100 MISG        N/A
NORTON KS      CLEAR     34  21  60 SW10      29.89S
SHARON SPRINGS   N/A     33  22  65 SW12        N/A
TRIBUNE KS     PTCLDY    36  27  69 W13       29.99F
TRENTON NEB      N/A     36  32  85 W8          N/A
$$




U.S. Dept. of Commerce
NOAA National Weather Service
1325 East West Highway
Silver Spring, MD 20910
E-mail: w-nws.webmaster@noaa.gov
Page last modified: May 16, 2007
NATIONAL WEATHER SERVICE: for Safety, for Work, for Fun - FOR LIFE